Location: Allos
(44.2333°N, 6.6333°E)
Time: 19:59:35
(UTC+00:00)

Cosmos 2228 Rocket - Pass Details

Date: 28 April 2021
Orbit: 617 x 652 km, 82.5° (Epoch: 05 May)

Event Time Altitude Azimuth Distance (km) Brightness Sun altitude
Exits shadow 00:45:46 11° 306° (NW) 1,911 5.7 -29.2°
Drops below altitude 10° 00:46:30 10° 316° (NW) 1,992 5.9 -29.1°
Sets 00:50:16 0° 349° (N) 2,909 7.3 -28.9°
